• Join FlightAware (Why Join?)
  • Login
  • US Flag 
Rudolph Flight #1: Arrived! 
12:52AM EST


 

Airport Tracker/Info


-or-


 

Live Flight TrackerFlight Track Log ✈ RPA4937 ✈ 06-May-2013 ✈ KEWR - KPWM

Flight Track Log - Related Links

Times and Time Zones

All times are in EDT time to prevent confusion due to time zone crossing. See the RPA4937 flight status page for this flight to view local times or setup timezone preferences in your user account.

Time Position Orientation Groundspeed Altitude Reporting Facility
EDT Latitude Longitude Course Direction KTS MPH feet Rate Location/Type
08:37AM 40.7833 -74.1167 37° Northeast 246 283 4,100  Level New York TRACON
08:38AM 40.8333 -74.1833 315° West 257 296 5,800 900 Climbing New York TRACON
08:39AM 41.0821 -74.1348 North  Level FlightAware Approximate
08:39AM 40.9167 -74.1667 North 271 312 6,000  Level New York TRACON
08:40AM 41.1592 -74.0921 74° East  Level FlightAware Approximate
08:40AM 41.0000 -74.1667 360° North 276 318 6,000  Level New York TRACON
08:41AM 41.1833 -73.9634 90° East  Level FlightAware Approximate
08:41AM 41.0667 -74.1500 11° North 277 319 6,000  Level New York TRACON
08:42AM 41.2154 -73.8513 37° Northeast  Level FlightAware Approximate
08:43AM 41.1669 -74.1028 20° North 266 306 6,000  Level Boston Center
08:45AM 41.2136 -73.8833 74° East 271 312 8,000 1,320 Climbing Boston Center
08:46AM 41.2336 -73.7953 73° East 276 318 10,000 1,980 Climbing Boston Center
08:47AM 41.2578 -73.6853 74° East 276 318 12,000 1,800 Climbing Boston Center
08:48AM 41.2775 -73.5947 74° East 279 321 13,600 960 Climbing Boston Center
08:50AM 41.3978 -73.4281 46° Northeast 310 357 15,000 420 Climbing Boston Center
08:51AM 41.4694 -73.3322 45° Northeast 332 382 15,000 60 Level Boston Center
08:52AM 41.5536 -73.2194 45° Northeast 337 388 15,200 660 Climbing Boston Center
08:53AM 41.6106 -73.1425 45° Northeast 332 382 16,500 900 Climbing Boston Center
08:54AM 41.6942 -73.0656 34° Northeast 326 375 17,000 240 Climbing Boston Center
08:55AM 41.7736 -73.0136 26° Northeast 344 396 17,000  Level Boston Center
08:57AM 41.8867 -72.9281 29° Northeast  Level FlightAware Approximate
08:58AM 42.0517 -72.8175 28° Northeast 358 412 17,000  Level Boston Center
08:59AM 42.1331 -72.7619 27° Northeast 358 412 17,000  Level Boston Center
09:00AM 42.2314 -72.6925 28° Northeast 352 405 17,000  Level Boston Center
09:01AM 42.3189 -72.6281 29° Northeast 352 405 17,000  Level Boston Center
09:03AM 42.4669 -72.4514 41° Northeast 347 399 17,000  Level Boston Center
09:04AM 42.3998 -72.5638 28° Northeast  Level FlightAware Approximate
09:04AM 42.5378 -72.3583 44° Northeast 347 399 17,000  Level Boston Center
09:06AM 42.6814 -72.1747 43° Northeast 347 399 17,000  Level Boston Center
09:07AM 42.7458 -72.0925 43° Northeast 347 399 17,000  Level Boston Center
09:08AM 42.8247 -71.9900 44° Northeast 347 399 17,000  Level Boston Center
09:09AM 42.8889 -71.9072 43° Northeast 347 399 17,000 -120 Level Boston Center
09:11AM 42.9714 -71.7699 51° Northeast  Level FlightAware Approximate
09:14AM 43.2525 -71.4281 65° Northeast 349 402 16,300  Level Boston Center
09:15AM 43.3225 -71.3356 44° Northeast 349 402 14,700 -1,680 Descending Boston Center
09:16AM 43.3883 -71.2458 45° Northeast 343 395 13,000 -1,260 Descending Boston Center
09:18AM 43.3908 -71.2096 43° Northeast  Level FlightAware Approximate
09:18AM 43.4922 -71.0492 54° Northeast 316 364 11,000  Level Boston Center
09:19AM 43.4512 -71.1298 65° Northeast  Level FlightAware Approximate
09:19AM 43.5200 -70.9311 72° East 317 365 10,400  Level Boston Center
09:21AM 43.5525 -70.7545 75° East  Level FlightAware Approximate
09:21AM 43.5192 -70.7192 75° East 274 315 7,900  Level Boston Center
09:23AM 43.5863 -70.5578 65° Northeast  Level FlightAware Approximate
09:23AM 43.5097 -70.5164 65° Northeast 269 310 5,100  Level Boston Center
09:25AM 43.5979 -70.3818 77° East  Level Estimated
09:26AM 43.5658 -70.2767 77° East 223 257 2,300  Level Boston Center
09:28AM 43.6403 -70.2425 18° North 137 158 1,100 -600 Descending Boston Center